Location: Copeville
(33.0796°N, 96.4155°W)
Time: 13:01:16
(UTC+00:00)

Cosmos 1328 Rocket - Pass Details

Date: 08 December 2021
Orbit: 600 x 627 km, 82.5° (Epoch: 22 January)

Event Time Altitude Azimuth Distance (km) Brightness Sun altitude
Rises 23:48:57 0° 177° (S) 2,896 7.3 -6.6°
Reaches altitude 10° 23:51:12 10° 174° (S) 1,994 6.4 -7.0°
Maximum altitude 23:55:33 62° 94° (E) 704 3.6 -7.8°
Drops below altitude 10° 23:59:57 10° 14° (NNE) 2,005 5.8 -8.7°
Sets 00:02:12 0° 11° (N) 2,913 6.7 -9.1°
